{"data":{"norad_id":45136,"intl_designator":"2020-008F","name":"ONEWEB-0023","alt_names":[],"object_type":"PAYLOAD","status":"ACTIVE","operator":null,"country":"UK","launch_date":"2020-02-06","launch_site_code":"TYMSC","launch_vehicle":null,"mission":null,"orbit_class":"UNKNOWN","rcs_meters":null,"size_class":null,"mass_kg":null,"dimensions":null,"purposes":["comms"],"wikipedia_slug":null,"has_3d_model":false,"image_url":null,"decayed_at":null,"tle_current":{"epoch":"2026-09-20T01:27:16.081056Z","epoch_age_seconds":52189,"freshness":"FRESH","line1":"1 45136U 20008F   26263.06060279  .00000009  00000+0 -10074-4 0  9993","line2":"2 45136  87.8912  17.3808 0001817 107.1649 252.9677 13.10377017320506","mean_motion":13.10377017,"eccentricity":0.0001817,"inclination_deg":87.8912,"raan_deg":17.3808,"arg_perigee_deg":107.1649,"mean_anomaly_deg":252.9677,"bstar":-1.0074e-5,"rev_number":32050,"period_min":109.8920372777,"perigee_km":1220.3200209308,"apogee_km":1223.0818020278,"semimajor_km":7599.8379114793,"source":"CELESTRAK","updated_at":"2026-09-20T09:00:44.545686Z"}}}